Wetterstation Camping Dickerscheid
Wetterdaten: aktuell Freitag, 20.10.2017 14:06
Datum Zeit Temp. Innen Temp. Auen Feuchte I. Feuchte A. Luftdruck Regen Wind W-Richtung W-Richtung Taupunkt Windchill Windben
20.10.2017 14:06 21,5 C 10,9 C 51 % 83 % 1007,0 hPa 0,0 mm 7,4 km/h (2 Bft) NW 321 8,1 C 10,9 C 20,9 km/h (4 Bft)
20.10.2017 13:06 21,4 C 10,6 C 51 % 88 % 1006,7 hPa 0,0 mm 3,8 km/h (1 Bft) O-NO 73 8,7 C 10,6 C 6,4 km/h (2 Bft)
20.10.2017 12:06 21,5 C 10,1 C 54 % 90 % 1006,5 hPa 0,0 mm 6,3 km/h (2 Bft) O-SO 112 8,5 C 10,1 C 12,9 km/h (3 Bft)
20.10.2017 11:06 21,4 C 10,0 C 54 % 95 % 1006,1 hPa 0,4 mm 7,8 km/h (2 Bft) S 170 9,2 C 9,0 C 11,3 km/h (2 Bft)
20.10.2017 10:06 21,4 C 11,5 C 53 % 96 % 1004,8 hPa 1,0 mm 19,3 km/h (3 Bft) S-SW 193 10,9 C 11,5 C 19,3 km/h (3 Bft)
20.10.2017 09:06 21,2 C 11,6 C 54 % 94 % 1003,9 hPa 0,0 mm 12,7 km/h (3 Bft) S-SO 163 10,7 C 11,6 C 27,4 km/h (4 Bft)
20.10.2017 08:06 21,1 C 11,5 C 54 % 95 % 1004,0 hPa 0,0 mm 16,1 km/h (3 Bft) S 171 10,7 C 11,5 C 16,1 km/h (3 Bft)
20.10.2017 07:06 21,1 C 11,8 C 53 % 96 % 1004,5 hPa 0,2 mm 16,1 km/h (3 Bft) S 171 11,2 C 11,8 C 16,1 km/h (3 Bft)
20.10.2017 06:06 21,1 C 11,4 C 53 % 93 % 1005,0 hPa 1,4 mm 16,1 km/h (3 Bft) S 171 10,3 C 11,4 C 16,1 km/h (3 Bft)
20.10.2017 05:06 21,2 C 12,3 C 53 % 82 % 1005,1 hPa 0,0 mm 16,1 km/h (3 Bft) S 171 9,3 C 12,3 C 16,1 km/h (3 Bft)
20.10.2017 04:06 21,6 C 12,0 C 52 % 85 % 1005,3 hPa 0,2 mm 16,1 km/h (3 Bft) S 171 9,6 C 12,0 C 16,1 km/h (3 Bft)
20.10.2017 03:06 21,2 C 13,3 C 52 % 76 % 1006,3 hPa 0,0 mm 16,1 km/h (3 Bft) S 171 9,2 C 13,3 C 16,1 km/h (3 Bft)
20.10.2017 02:06 21,3 C 13,2 C 53 % 74 % 1006,5 hPa 0,0 mm 16,1 km/h (3 Bft) S 171 8,7 C 13,2 C 16,1 km/h (3 Bft)
20.10.2017 01:06 21,3 C 13,4 C 53 % 74 % 1006,3 hPa 0,0 mm 16,1 km/h (3 Bft) S 171 8,9 C 13,4 C 16,1 km/h (3 Bft)
20.10.2017 00:06 21,5 C 13,6 C 53 % 75 % 1006,0 hPa 0,0 mm 16,1 km/h (3 Bft) S 171 9,3 C 13,6 C 16,1 km/h (3 Bft)
19.10.2017 23:06 21,5 C 13,7 C 54 % 79 % 1006,5 hPa 0,0 mm 16,1 km/h (3 Bft) S 171 10,1 C 13,7 C 16,1 km/h (3 Bft)
19.10.2017 22:06 21,6 C 14,2 C 54 % 82 % 1006,6 hPa 0,0 mm 16,1 km/h (3 Bft) S 171 11,2 C 14,2 C 16,1 km/h (3 Bft)
19.10.2017 21:06 21,7 C 13,6 C 54 % 87 % 1006,7 hPa 0,0 mm 16,1 km/h (3 Bft) S 171 11,5 C 13,6 C 16,1 km/h (3 Bft)
19.10.2017 20:06 21,8 C 14,3 C 54 % 86 % 1006,7 hPa 0,0 mm 16,1 km/h (3 Bft) S 171 12,0 C 14,3 C 16,1 km/h (3 Bft)
19.10.2017 19:06 22,0 C 15,3 C 54 % 83 % 1006,7 hPa 0,0 mm 16,1 km/h (3 Bft) S 171 12,4 C 15,3 C 16,1 km/h (3 Bft)
19.10.2017 18:06 22,2 C 15,7 C 53 % 82 % 1006,5 hPa 0,0 mm 10,8 km/h (2 Bft) S-SW 199 12,6 C 15,7 C 16,1 km/h (3 Bft)
19.10.2017 17:06 22,4 C 16,7 C 52 % 79 % 1006,4 hPa 0,0 mm 8,1 km/h (2 Bft) S-SW 195 13,0 C 16,7 C 12,9 km/h (3 Bft)
19.10.2017 16:06 22,4 C 17,3 C 52 % 77 % 1006,6 hPa 0,0 mm 2,0 km/h (1 Bft) S-SO 166 13,2 C 17,3 C 4,8 km/h (1 Bft)
19.10.2017 15:06 22,4 C 17,6 C 53 % 76 % 1006,9 hPa 0,0 mm 4,8 km/h (1 Bft) S-SO 159 13,3 C 17,6 C 8,0 km/h (2 Bft)
19.10.2017 15:00 22,4 C 17,5 C 53 % 76 % 1006,9 hPa 0,0 mm 7,3 km/h (2 Bft) SW 221 13,2 C 17,5 C 9,7 km/h (2 Bft)
_ Min-Zeit 06:25 12:16 04:11 02:27 08:43 - 15:05 - - 13:32 10:49 15:05
Minimum _ 20,9 C 9,6 C 51 % 72 % 1003,7 hPa - 0,7 km/h (0 Bft) - - 8,0 C 7,4 C 3,2 km/h (1 Bft)
_ Max-Zeit 18:21 15:17 19:23 06:49 13:56 03:30 09:20 - - 15:19 15:17 09:11
Maximum _ 22,8 C 17,7 C 55 % 96 % 1007,1 hPa 0,2 mm 19,4 km/h
S-SW (3 Bft)
- - 13,6 C 17,7 C 29,0 km/h
S-SO (5 Bft)
Durchschnitt _ 21,6 C 13,4 C 53 % 84 % 1006,0 hPa #3,2 mm 13,2 km/h (3 Bft) S - 10,7 C 13,4 C 15,1 km/h (3 Bft)